Anderson, SC

9:03 AM EST on January 24, 2017 (GMT -0500)
Anderson Regional

Weather History for KAND - November, 2013

Change the Weather History Date:

Saturday, November 9, 2013

  Actual Average Record
Temperature  
Mean Temperature 46 °F -  
Max Temperature 57 °F 65 °F 81 °F (1986)
Min Temperature 34 °F 41 °F 21 °F (1976)
Degree Days  
Heating Degree Days 20    
Moisture  
Dew Point 32 °F    
Average Humidity 59    
Maximum Humidity 82    
Minimum Humidity 32    
Precipitation  
Precipitation 0.00 in - - ()
Sea Level Pressure  
Sea Level Pressure 30.31 in    
Wind  
Wind Speed 4 mph (ESE)    
Max Wind Speed 6 mph    
Max Gust Speed -    
Visibility 10 miles    
Events      
Averages and records for this station are not official NWS values.
T = Trace of Precipitation, MM = Missing Value Source: NWS Daily Summary

Daily Weather History Graph

Daily Weather History Graph

Search for Another Location

Airport or City:

Trip Planner

Search our weather history database for the weather conditions in past years. The results will help you decide how hot, cold, wet, or windy it might be!

Date:

Astronomy

Nov. 09, 2013 Rise Set
Actual Time 6:58 AM EST 5:30 PM EST
Civil Twilight 6:32 AM EST 5:56 PM EST
Nautical Twilight 6:02 AM EST 6:26 PM EST
Astronomical Twilight 5:32 AM EST 6:56 PM EST
Moon 12:37 PM EST (11/9) 11:55 PM EST (11/9)
Length of Visible Light 11h 24m
Length of Day
10h 31m
Waxing Crescent, 44% of the Moon is Illuminated
Nov 9
Waxing Crescent
Nov 10
First Quarter
Nov 17
Full
Nov 25
Last Quarter
Dec 2
New

Hourly Weather History & Observations

Time (EST) Temp. Windchill Dew Point Humidity Pressure Visibility Wind Dir Wind Speed Gust Speed Precip Events Conditions
12:56 AM 41.0 °F 37.1 °F 28.0 °F 60% 30.31 in 10.0 mi NE 5.8 mph - N/A   Clear
1:56 AM 39.0 °F 35.7 °F 28.0 °F 65% 30.31 in 10.0 mi ENE 4.6 mph - N/A   Clear
2:56 AM 39.9 °F 35.8 °F 28.0 °F 63% 30.32 in 10.0 mi NE 5.8 mph - N/A   Clear
3:56 AM 39.0 °F 36.8 °F 28.0 °F 65% 30.33 in 10.0 mi NE 3.5 mph - N/A   Clear
4:56 AM 39.0 °F 36.8 °F 28.0 °F 65% 30.33 in 10.0 mi NE 3.5 mph - N/A   Clear
5:56 AM 37.9 °F - 28.0 °F 68% 30.35 in 10.0 mi Calm Calm - N/A   Clear
6:56 AM 34.0 °F - 28.9 °F 82% 30.36 in 10.0 mi Calm Calm - N/A   Clear
7:56 AM 39.0 °F 36.8 °F 32.0 °F 76% 30.38 in 10.0 mi ENE 3.5 mph - N/A   Clear
8:56 AM 45.0 °F 42.6 °F 28.9 °F 53% 30.38 in 10.0 mi ENE 4.6 mph - N/A   Clear
9:56 AM 48.9 °F - 28.9 °F 46% 30.38 in 10.0 mi Calm Calm - N/A   Clear
10:56 AM 53.1 °F - 27.0 °F 37% 30.36 in 10.0 mi South 5.8 mph - N/A   Clear
11:56 AM 57.0 °F - 27.0 °F 32% 30.34 in 10.0 mi SSW 3.5 mph - N/A   Clear
12:56 PM 55.9 °F - 27.0 °F 33% 30.31 in 10.0 mi SW 5.8 mph - N/A   Clear
1:56 PM 57.0 °F - 28.9 °F 34% 30.30 in 10.0 mi WSW 5.8 mph - N/A   Clear
2:56 PM 55.0 °F - 32.0 °F 42% 30.29 in 10.0 mi WNW 3.5 mph - N/A   Clear
3:56 PM 55.0 °F - 33.1 °F 43% 30.29 in 10.0 mi Calm Calm - N/A   Clear
4:56 PM 52.0 °F - 39.0 °F 61% 30.27 in 10.0 mi Calm Calm - N/A   Clear
5:56 PM 52.0 °F - 37.0 °F 57% 30.23 in 10.0 mi SSE 4.6 mph - N/A   Clear
6:56 PM 50.0 °F - 39.0 °F 66% 30.27 in 10.0 mi Calm Calm - N/A   Clear
7:56 PM 48.9 °F - 39.0 °F 69% 30.26 in 10.0 mi Calm Calm - N/A   Clear
8:56 PM 48.9 °F - 39.9 °F 71% 30.27 in 10.0 mi Calm Calm - N/A   Clear
9:56 PM 48.0 °F - 39.9 °F 74% 30.26 in 10.0 mi SW 3.5 mph - N/A   Clear
10:56 PM 48.0 °F - 39.9 °F 74% 30.25 in 10.0 mi Calm Calm - N/A   Clear
11:56 PM 45.0 °F 43.5 °F 39.9 °F 82% 30.24 in 10.0 mi SW 3.5 mph - N/A   Clear